Huvudsida
METAR-TAF:

METAR-TAF

Flygplatser :

Vilhelmina flygplats

Vilhelmina, Sverige

latitud: 64-34-44N, longitud: 016-50-00E, höjd: 347 m

Aktuellt väderrapport

Denna rapport gjordes för 32 minuter sedan, klockan 12:20 UTC
Vind 9 kt från syd
Temperatur 15°C
Fuktighet 59%
Tryck 1003 hPa
Sikt 10 km eller mer

METAR: ESNV 181220Z AUTO 18009KT 9999 OVC049/// 15/07 Q1003

Tid: 14:52 (12:52 UTC)


TAF: saknas

Aktuella väderrapporter och prognoser från 4000 flygplatser (METAR- och TAF-rapporter).

De tillgängliga stationerna syns som gula och röda prickar på kartan.

För musen över prickarna för att se namnen på stationerna.

Klicka sedan för att få väderrapporter och prognoser.

För att ändra kartan: Klicka på de gröna knapparna med ett svart kors på för att zooma in; den gröna knappen med ett streck på för att zooma ut; eller på de gröna pilarna för angränsande kartor.


METAR-TAF: